Regional Weather Roundup
Issued by NWS

Home | Current Version | Previous Version | Graphics & Text | Print | Product List | Glossary On
Versions: 1 2 3 4 5 6 7 8 9 10 11 12 13 14 15 16 17 18 19 20 21 22 23 24 25 26 27 28 29 30 31 32 33 34 35 36 37 38 39 40 41 42 43 44 45 46 47 48 49 50
000
ASUS43 KIND 190809
RWRIN

WEATHER ROUNDUP FOR INDIANA
NATIONAL WEATHER SERVICE INDIANAPOLIS IN
400 AM EDT FRI SEP 19 2014

NOTE: "FAIR" INDICATES FEW OR NO CLOUDS BELOW 12,000 FEET WITH NO
SIGNIFICANT WEATHER AND/OR OBSTRUCTIONS TO VISIBILITY.

* - STATION DOES NOT REPORT WEATHER SUCH AS PRECIPITATION OR FOG.

+ - STATION NOT QUALITY CONTROLLED BY THE NATIONAL WEATHER SERVICE.
    USE DATA WITH CAUTION...ESPECIALLY DEWPOINT AND RELATIVE
    HUMIDITY OBSERVATIONS.

INZ001>003-010>013-019-020-190900-
NORTHWEST INDIANA

CITY           SKY/WX    TMP DP  RH WIND       PRES   REMARKS
GARY /AIRPORT/ CLEAR     57  52  82 SE6       30.16F
KNOX *+        CLEAR     51  48  89 E5        30.17S
LA PORTE +     CLEAR     48  48 100 E3        30.18F
MICHIGAN CITY+ CLEAR     54  52  94 E3        30.18F
MONTICELLO +   CLEAR     52  49  92 E3        30.16R
RENSSELAER +   CLEAR     50  50 100 E3        30.16S
VALPARAISO     CLEAR     49  47  93 E6        30.17S

$$

LMZ046-743>745-190900-
SOUTHERN LAKE MICHIGAN

STATION/POSITION TIME  TEMP WIND        PRES
                       AIR  DIR/SP/G
                 (UTC) (F)  (DEG/KT/KT) (MB)
MICHIGAN CITY    0800   58  110/  9/ 12   N/A

$$

INZ004-005-014>016-021>024-190900-
NORTH CENTRAL INDIANA

CITY           SKY/WX    TMP DP  RH WIND       PRES   REMARKS
GOSHEN         CLEAR     53  50  89 E7        30.19F FOG
LOGANSPORT +   CLEAR     50  46  87 E6        30.17S
PERU/GRISSOM   CLEAR     52  52 100 E7        30.16F
ROCHESTER +    CLEAR     54  52  94 E6        30.18S
SOUTH BEND     NOT AVBL
WARSAW +       CLEAR     52  50  93 E7        30.19S FOG

$$

INZ006>009-017-018-025>027-190900-
NORTHEAST INDIANA

CITY           SKY/WX    TMP DP  RH WIND       PRES   REMARKS
ANGOLA *+      CLEAR     50  48  93 SE8       30.21F
AUBURN +       CLEAR     50  48  93 E5        30.21F FOG
FORT WAYNE     CLEAR     50  48  93 E7        30.20F FOG
HUNTINGTON +   CLEAR     49  49  97 E3        30.18F

$$

INZ028-029-035-036-043>045-051>053-190900-
WEST CENTRAL INDIANA

CITY           SKY/WX    TMP DP  RH WIND       PRES   REMARKS
GREENCASTLE +  CLEAR     52  46  82 CALM      30.15S
LAFAYETTE        N/A     53  48  83 E3        30.14F
TERRE HAUTE    CLEAR     49  46  90 CALM      30.13S

$$

INZ030>032-037>040-046>048-054>057-064-065-190900-
CENTRAL INDIANA

CITY           SKY/WX    TMP DP  RH WIND       PRES   REMARKS
CP ATTERBURY + CLEAR     45  43  93 CALM      30.15S
FRANKFORT +    CLEAR     50  50 100 E6        30.15F
GREENWOOD *+   CLEAR     54  48  82 E3        30.16
INDIANAPOLIS   CLEAR     55  47  74 E7        30.14S
-EAGLE CREEK   CLEAR     53  47  79 E3        30.15S
KOKOMO *+      CLEAR     50  46  87 E8        30.17F
MARION +       CLEAR     51  47  87 E6        30.18F
MT COMFORT *+  CLEAR     50  46  87 E3        30.16F
SHELBYVILLE    CLEAR     51  47  86 NE6       30.15S
ZIONSVILLE +   CLEAR     51  46  84 CALM      30.16F

$$

INZ033-034-041-042-049-050-058-059-190900-
EAST CENTRAL INDIANA

CITY           SKY/WX    TMP DP  RH WIND       PRES   REMARKS
MUNCIE         CLEAR     49  46  90 SE5       30.18S

$$

INZ060-061-067>069-081>083-085>088-190900-
SOUTHWEST INDIANA

CITY           SKY/WX    TMP DP  RH WIND       PRES   REMARKS
EVANSVILLE     CLEAR     57  50  77 NE5       30.09S
WASHINGTON +   CLEAR     47  47 100 CALM      30.10F

$$

INZ062-063-066-070>080-084-089>092-190900-
SOUTH CENTRAL AND SOUTHEAST INDIANA

CITY           SKY/WX    TMP DP  RH WIND       PRES   REMARKS
BLOOMINGTON    CLEAR     47  45  93 CALM      30.13F FOG
NORTH VERNON + CLEAR     50  50 100 NE3       30.14F

$$




USA.gov is the U.S. government's official web portal to all federal, state and local government web resources and services.